Terminal Aerodrome Forecast
Issued by NWS Wilmington, OH

Current Version | Previous Version | Graphics & Text | Print | Product List | Glossary On
Versions: 1 2 3 4 5 6 7 8 9 10 11 12 13 14 15 16 17 18 19 20 21 22 23 24 25 26 27 28 29 30
000
FTUS41 KILN 211800 AAA
TAFDAY
TAF AMD
KDAY 211858Z 2119/2218 27025G33KT P6SM BKN045
     FM220000 31014KT P6SM OVC022
     FM221300 34009KT P6SM SCT025=

USA.gov is the U.S. government's official web portal to all federal, state and local government web resources and services.